Year,Month,Day,Hour,Minute,Value (Times are PST for temperature in C)
2007,08,14,00,00,14.50
2007,08,14,00,01,14.50
2007,08,14,00,02,14.50
2007,08,14,00,03,14.50
2007,08,14,00,04,14.50
2007,08,14,00,05,14.50
2007,08,14,00,06,14.50
2007,08,14,00,07,14.50
2007,08,14,00,08,14.50
2007,08,14,00,09,14.50
2007,08,14,00,10,14.50
2007,08,14,00,11,14.40
2007,08,14,00,12,14.40
2007,08,14,00,13,14.40
2007,08,14,00,14,14.40
2007,08,14,00,15,14.40
2007,08,14,00,16,14.40
2007,08,14,00,17,14.40
2007,08,14,00,18,14.40
2007,08,14,00,19,14.40
2007,08,14,00,20,14.40
2007,08,14,00,21,14.40
2007,08,14,00,22,14.40
2007,08,14,00,23,14.40
2007,08,14,00,24,14.40
2007,08,14,00,25,14.40
2007,08,14,00,26,14.40
2007,08,14,00,27,14.40
2007,08,14,00,28,14.40
2007,08,14,00,29,14.40
2007,08,14,00,30,14.40
2007,08,14,00,31,14.40
2007,08,14,00,32,14.40
2007,08,14,00,33,14.40
2007,08,14,00,34,14.40
2007,08,14,00,35,14.40
2007,08,14,00,36,14.40
2007,08,14,00,37,14.40
2007,08,14,00,38,14.40
2007,08,14,00,39,14.30
2007,08,14,00,40,14.30
2007,08,14,00,41,14.30
2007,08,14,00,42,14.30
2007,08,14,00,43,14.30
2007,08,14,00,44,14.30
2007,08,14,00,45,14.30
2007,08,14,00,46,14.30
2007,08,14,00,47,14.30
2007,08,14,00,48,14.30
2007,08,14,00,49,14.20
2007,08,14,00,50,14.20
2007,08,14,00,51,14.20
2007,08,14,00,52,14.20
2007,08,14,00,53,14.20
2007,08,14,00,54,14.20
2007,08,14,00,55,14.20
2007,08,14,00,56,14.20
2007,08,14,00,57,14.20
2007,08,14,00,58,14.20
2007,08,14,00,59,14.20
2007,08,14,01,00,14.20
2007,08,14,01,01,14.20
2007,08,14,01,02,14.20
2007,08,14,01,03,14.10
2007,08,14,01,04,14.10
2007,08,14,01,05,14.10
2007,08,14,01,06,14.10
2007,08,14,01,07,14.00
2007,08,14,01,08,14.00
2007,08,14,01,09,14.00
2007,08,14,01,10,13.90
2007,08,14,01,11,13.90
2007,08,14,01,12,13.90
2007,08,14,01,13,13.80
2007,08,14,01,14,13.80
2007,08,14,01,15,13.70
2007,08,14,01,16,13.70
2007,08,14,01,17,13.70
2007,08,14,01,18,13.60
2007,08,14,01,19,13.60
2007,08,14,01,20,13.60
2007,08,14,01,21,13.50
2007,08,14,01,22,13.40
2007,08,14,01,23,13.40
2007,08,14,01,24,13.40
2007,08,14,01,25,13.30
2007,08,14,01,26,13.30
2007,08,14,01,27,13.30
2007,08,14,01,28,13.30
2007,08,14,01,29,13.30
2007,08,14,01,30,13.30
2007,08,14,01,31,13.20
2007,08,14,01,32,13.20
2007,08,14,01,33,13.20
2007,08,14,01,34,13.20
2007,08,14,01,35,13.20
2007,08,14,01,36,13.20
2007,08,14,01,37,13.20
2007,08,14,01,38,13.20
2007,08,14,01,39,13.20
2007,08,14,01,40,13.20
2007,08,14,01,41,13.10
2007,08,14,01,42,13.10
2007,08,14,01,43,13.10
2007,08,14,01,44,13.10
2007,08,14,01,45,13.10
2007,08,14,01,46,13.10
2007,08,14,01,47,13.10
2007,08,14,01,48,13.10
2007,08,14,01,49,13.10
2007,08,14,01,50,13.00
2007,08,14,01,51,13.00
2007,08,14,01,52,13.00
2007,08,14,01,53,13.00
2007,08,14,01,54,13.00
2007,08,14,01,55,12.90
2007,08,14,01,56,12.90
2007,08,14,01,57,12.90
2007,08,14,01,58,12.90
2007,08,14,01,59,12.90
2007,08,14,02,00,12.90
2007,08,14,02,01,12.90
2007,08,14,02,02,12.90
2007,08,14,02,03,12.90
2007,08,14,02,04,12.90
2007,08,14,02,05,12.80
2007,08,14,02,06,12.80
2007,08,14,02,07,12.80
2007,08,14,02,08,12.80
2007,08,14,02,09,12.80
2007,08,14,02,10,12.80
2007,08,14,02,11,12.80
2007,08,14,02,12,12.80
2007,08,14,02,13,12.70
2007,08,14,02,14,12.70
2007,08,14,02,15,12.70
2007,08,14,02,16,12.60
2007,08,14,02,17,12.60
2007,08,14,02,18,12.60
2007,08,14,02,19,12.60
2007,08,14,02,20,12.60
2007,08,14,02,21,12.60
2007,08,14,02,22,12.50
2007,08,14,02,23,12.50
2007,08,14,02,24,12.50
2007,08,14,02,25,12.40
2007,08,14,02,26,12.40
2007,08,14,02,27,12.40
2007,08,14,02,28,12.40
2007,08,14,02,29,12.40
2007,08,14,02,30,12.40
2007,08,14,02,31,12.40
2007,08,14,02,32,12.40
2007,08,14,02,33,12.30
2007,08,14,02,34,12.30
2007,08,14,02,35,12.30
2007,08,14,02,36,12.30
2007,08,14,02,37,12.30
2007,08,14,02,38,12.30
2007,08,14,02,39,12.30
2007,08,14,02,40,12.30
2007,08,14,02,41,12.30
2007,08,14,02,42,12.30
2007,08,14,02,43,12.30
2007,08,14,02,44,12.30
2007,08,14,02,45,12.20
2007,08,14,02,46,12.20
2007,08,14,02,47,12.20
2007,08,14,02,48,12.20
2007,08,14,02,49,12.20
2007,08,14,02,50,12.20
2007,08,14,02,51,12.20
2007,08,14,02,52,12.20
2007,08,14,02,53,12.20
2007,08,14,02,54,12.20
2007,08,14,02,55,12.20
2007,08,14,02,56,12.20
2007,08,14,02,57,12.20
2007,08,14,02,58,12.20
2007,08,14,02,59,12.20
2007,08,14,03,00,12.20
2007,08,14,03,01,12.20
2007,08,14,03,02,12.20
2007,08,14,03,03,12.20
2007,08,14,03,04,12.20
2007,08,14,03,05,12.10
2007,08,14,03,06,12.10
2007,08,14,03,07,12.10
2007,08,14,03,08,12.10
2007,08,14,03,09,12.10
2007,08,14,03,10,12.10
2007,08,14,03,11,12.10
2007,08,14,03,12,12.10
2007,08,14,03,13,12.10
2007,08,14,03,14,12.10
2007,08,14,03,15,12.10
2007,08,14,03,16,12.10
2007,08,14,03,17,12.10
2007,08,14,03,18,12.00
2007,08,14,03,19,12.00
2007,08,14,03,20,12.00
2007,08,14,03,21,12.00
2007,08,14,03,22,12.00
2007,08,14,03,23,12.00
2007,08,14,03,24,12.00
2007,08,14,03,25,12.00
2007,08,14,03,26,12.00
2007,08,14,03,27,12.00
2007,08,14,03,28,12.00
2007,08,14,03,29,12.00
2007,08,14,03,30,12.00
2007,08,14,03,31,12.00
2007,08,14,03,32,12.00
2007,08,14,03,33,11.90
2007,08,14,03,34,11.90
2007,08,14,03,35,11.90
2007,08,14,03,36,11.90
2007,08,14,03,37,11.80
2007,08,14,03,38,11.80
2007,08,14,03,39,11.80
2007,08,14,03,40,11.80
2007,08,14,03,41,11.80
2007,08,14,03,42,11.80
2007,08,14,03,43,11.80
2007,08,14,03,44,11.80
2007,08,14,03,45,11.80
2007,08,14,03,46,11.90
2007,08,14,03,47,11.90
2007,08,14,03,48,11.90
2007,08,14,03,49,11.90
2007,08,14,03,50,11.80
2007,08,14,03,51,11.80
2007,08,14,03,52,11.80
2007,08,14,03,53,11.80
2007,08,14,03,54,11.80
2007,08,14,03,55,11.80
2007,08,14,03,56,11.80
2007,08,14,03,57,11.80
2007,08,14,03,58,11.80
2007,08,14,03,59,11.80
2007,08,14,04,00,11.80
2007,08,14,04,01,11.90
2007,08,14,04,02,11.90
2007,08,14,04,03,11.90
2007,08,14,04,04,11.90
2007,08,14,04,05,11.90
2007,08,14,04,06,11.90
2007,08,14,04,07,11.90
2007,08,14,04,08,11.90
2007,08,14,04,09,11.80
2007,08,14,04,10,11.90
2007,08,14,04,11,11.80
2007,08,14,04,12,11.80
2007,08,14,04,13,11.80
2007,08,14,04,14,11.80
2007,08,14,04,15,11.80
2007,08,14,04,16,11.80
2007,08,14,04,17,11.80
2007,08,14,04,18,11.80
2007,08,14,04,19,11.80
2007,08,14,04,20,11.80
2007,08,14,04,21,11.80
2007,08,14,04,22,11.80
2007,08,14,04,23,11.80
2007,08,14,04,24,11.80
2007,08,14,04,25,11.80
2007,08,14,04,26,11.80
2007,08,14,04,27,11.80
2007,08,14,04,28,11.80
2007,08,14,04,29,11.80
2007,08,14,04,30,11.80
2007,08,14,04,31,11.80
2007,08,14,04,32,11.80
2007,08,14,04,33,11.80
2007,08,14,04,34,11.80
2007,08,14,04,35,11.80
2007,08,14,04,36,11.80
2007,08,14,04,37,11.80
2007,08,14,04,38,11.80
2007,08,14,04,39,11.80
2007,08,14,04,40,11.80
2007,08,14,04,41,11.80
2007,08,14,04,42,11.80
2007,08,14,04,43,11.80
2007,08,14,04,44,11.80
2007,08,14,04,45,11.80
2007,08,14,04,46,11.80
2007,08,14,04,47,11.80
2007,08,14,04,48,11.80
2007,08,14,04,49,11.80
2007,08,14,04,50,11.80
2007,08,14,04,51,11.90
2007,08,14,04,52,11.90
2007,08,14,04,53,11.90
2007,08,14,04,54,11.90
2007,08,14,04,55,11.90
2007,08,14,04,56,11.90
2007,08,14,04,57,11.90
2007,08,14,04,58,11.90
2007,08,14,04,59,11.80
2007,08,14,05,00,11.80
2007,08,14,05,01,11.80
2007,08,14,05,02,11.80
2007,08,14,05,03,11.80
2007,08,14,05,04,11.80
2007,08,14,05,05,11.80
2007,08,14,05,06,11.70
2007,08,14,05,07,11.70
2007,08,14,05,08,11.70
2007,08,14,05,09,11.70
2007,08,14,05,10,11.70
2007,08,14,05,11,11.70
2007,08,14,05,12,11.60
2007,08,14,05,13,11.60
2007,08,14,05,14,11.60
2007,08,14,05,15,11.60
2007,08,14,05,16,11.60
2007,08,14,05,17,11.60
2007,08,14,05,18,11.60
2007,08,14,05,19,11.50
2007,08,14,05,20,11.50
2007,08,14,05,21,11.50
2007,08,14,05,22,11.50
2007,08,14,05,23,11.50
2007,08,14,05,24,11.50
2007,08,14,05,25,11.50
2007,08,14,05,26,11.50
2007,08,14,05,27,11.50
2007,08,14,05,28,11.40
2007,08,14,05,29,11.40
2007,08,14,05,30,11.40
2007,08,14,05,31,11.40
2007,08,14,05,32,11.40
2007,08,14,05,33,11.40
2007,08,14,05,34,11.30
2007,08,14,05,35,11.30
2007,08,14,05,36,11.30
2007,08,14,05,37,11.30
2007,08,14,05,38,11.30
2007,08,14,05,39,11.30
2007,08,14,05,40,11.30
2007,08,14,05,41,11.30
2007,08,14,05,42,11.30
2007,08,14,05,43,11.30
2007,08,14,05,44,11.30
2007,08,14,05,45,11.30
2007,08,14,05,46,11.20
2007,08,14,05,47,11.20
2007,08,14,05,48,11.20
2007,08,14,05,49,11.20
2007,08,14,05,50,11.20
2007,08,14,05,51,11.20
2007,08,14,05,52,11.20
2007,08,14,05,53,11.20
2007,08,14,05,54,11.20
2007,08,14,05,55,11.20
2007,08,14,05,56,11.20
2007,08,14,05,57,11.20
2007,08,14,05,58,11.20
2007,08,14,05,59,11.30
2007,08,14,06,00,11.30
2007,08,14,06,01,11.30
2007,08,14,06,02,11.30
2007,08,14,06,03,11.30
2007,08,14,06,04,11.30
2007,08,14,06,05,11.30
2007,08,14,06,06,11.30
2007,08,14,06,07,11.20
2007,08,14,06,08,11.20
2007,08,14,06,09,11.20
2007,08,14,06,10,11.20
2007,08,14,06,11,11.20
2007,08,14,06,12,11.20
2007,08,14,06,13,11.20
2007,08,14,06,14,11.10
2007,08,14,06,15,11.10
2007,08,14,06,16,11.10
2007,08,14,06,17,11.10
2007,08,14,06,18,11.10
2007,08,14,06,19,11.10
2007,08,14,06,20,11.10
2007,08,14,06,21,11.10
2007,08,14,06,22,11.10
2007,08,14,06,23,11.10
2007,08,14,06,24,11.10
2007,08,14,06,25,11.10
2007,08,14,06,26,11.10
2007,08,14,06,27,11.10
2007,08,14,06,28,11.20
2007,08,14,06,29,11.20
2007,08,14,06,30,11.20
2007,08,14,06,31,11.20
2007,08,14,06,32,11.20
2007,08,14,06,33,11.30
2007,08,14,06,34,11.30
2007,08,14,06,35,11.30
2007,08,14,06,36,11.40
2007,08,14,06,37,11.40
2007,08,14,06,38,11.50
2007,08,14,06,39,11.50
2007,08,14,06,40,11.50
2007,08,14,06,41,11.50
2007,08,14,06,42,11.50
2007,08,14,06,43,11.40
2007,08,14,06,44,11.40
2007,08,14,06,45,11.40
2007,08,14,06,46,11.40
2007,08,14,06,47,11.40
2007,08,14,06,48,11.40
2007,08,14,06,49,11.50
2007,08,14,06,50,11.50
2007,08,14,06,51,11.50
2007,08,14,06,52,11.50
2007,08,14,06,53,11.60
2007,08,14,06,54,11.60
2007,08,14,06,55,11.60
2007,08,14,06,56,11.60
2007,08,14,06,57,11.70
2007,08,14,06,58,11.70
2007,08,14,06,59,11.70
2007,08,14,07,00,11.80
2007,08,14,07,01,11.80
2007,08,14,07,02,11.80
2007,08,14,07,03,11.90
2007,08,14,07,04,11.90
2007,08,14,07,05,12.00
2007,08,14,07,06,12.00
2007,08,14,07,07,12.10
2007,08,14,07,08,12.10
2007,08,14,07,09,12.10
2007,08,14,07,10,12.20
2007,08,14,07,11,12.20
2007,08,14,07,12,12.30
2007,08,14,07,13,12.30
2007,08,14,07,14,12.40
2007,08,14,07,15,12.40
2007,08,14,07,16,12.50
2007,08,14,07,17,12.60
2007,08,14,07,18,12.60
2007,08,14,07,19,12.70
2007,08,14,07,20,12.80
2007,08,14,07,21,12.80
2007,08,14,07,22,12.80
2007,08,14,07,23,12.90
2007,08,14,07,24,13.00
2007,08,14,07,25,13.10
2007,08,14,07,26,13.20
2007,08,14,07,27,13.20
2007,08,14,07,28,13.30
2007,08,14,07,29,13.40
2007,08,14,07,30,13.60
2007,08,14,07,31,13.70
2007,08,14,07,32,13.80
2007,08,14,07,33,13.80
2007,08,14,07,34,13.90
2007,08,14,07,35,14.00
2007,08,14,07,36,14.10
2007,08,14,07,37,14.20
2007,08,14,07,38,14.20
2007,08,14,07,39,14.30
2007,08,14,07,40,14.30
2007,08,14,07,41,14.40
2007,08,14,07,42,14.50
2007,08,14,07,43,14.50
2007,08,14,07,44,14.60
2007,08,14,07,45,14.70
2007,08,14,07,46,14.80
2007,08,14,07,47,14.80
2007,08,14,07,48,14.90
2007,08,14,07,49,15.00
2007,08,14,07,50,15.00
2007,08,14,07,51,15.00
2007,08,14,07,52,15.10
2007,08,14,07,53,15.20
2007,08,14,07,54,15.30
2007,08,14,07,55,15.40
2007,08,14,07,56,15.50
2007,08,14,07,57,15.60
2007,08,14,07,58,15.60
2007,08,14,07,59,15.70
2007,08,14,08,00,15.80
2007,08,14,08,01,15.90
2007,08,14,08,02,16.00
2007,08,14,08,03,16.10
2007,08,14,08,04,16.20
2007,08,14,08,05,16.40
2007,08,14,08,06,16.50
2007,08,14,08,07,16.60
2007,08,14,08,08,16.70
2007,08,14,08,09,16.80
2007,08,14,08,10,16.80
2007,08,14,08,11,16.80
2007,08,14,08,12,16.80
2007,08,14,08,13,16.80
2007,08,14,08,14,16.80
2007,08,14,08,15,16.80
2007,08,14,08,16,16.80
2007,08,14,08,17,16.80
2007,08,14,08,18,16.80
2007,08,14,08,19,16.80
2007,08,14,08,20,16.80
2007,08,14,08,21,16.80
2007,08,14,08,22,16.90
2007,08,14,08,23,16.90
2007,08,14,08,24,16.90
2007,08,14,08,25,16.90
2007,08,14,08,26,16.90
2007,08,14,08,27,17.00
2007,08,14,08,28,17.10
2007,08,14,08,29,17.10
2007,08,14,08,30,17.10
2007,08,14,08,31,17.20
2007,08,14,08,32,17.20
2007,08,14,08,33,17.30
2007,08,14,08,34,17.30
2007,08,14,08,35,17.30
2007,08,14,08,36,17.30
2007,08,14,08,37,17.30
2007,08,14,08,38,17.30
2007,08,14,08,39,17.40
2007,08,14,08,40,17.40
2007,08,14,08,41,17.40
2007,08,14,08,42,17.50
2007,08,14,08,43,17.60
2007,08,14,08,44,17.60
2007,08,14,08,45,17.70
2007,08,14,08,46,17.60
2007,08,14,08,47,17.70
2007,08,14,08,48,17.70
2007,08,14,08,49,17.70
2007,08,14,08,50,17.70
2007,08,14,08,51,17.70
2007,08,14,08,52,17.80
2007,08,14,08,53,17.80
2007,08,14,08,54,17.90
2007,08,14,08,55,18.00
2007,08,14,08,56,18.10
2007,08,14,08,57,18.10
2007,08,14,08,58,18.20
2007,08,14,08,59,18.20
2007,08,14,09,00,18.20
2007,08,14,09,01,18.20
2007,08,14,09,02,18.20
2007,08,14,09,03,18.20
2007,08,14,09,04,18.20
2007,08,14,09,05,18.10
2007,08,14,09,06,18.10
2007,08,14,09,07,18.10
2007,08,14,09,08,18.10
2007,08,14,09,09,18.10
2007,08,14,09,10,18.20
2007,08,14,09,11,18.20
2007,08,14,09,12,18.20
2007,08,14,09,13,18.30
2007,08,14,09,14,18.30
2007,08,14,09,15,18.30
2007,08,14,09,16,18.30
2007,08,14,09,17,18.30
2007,08,14,09,18,18.30
2007,08,14,09,19,18.30
2007,08,14,09,20,18.30
2007,08,14,09,21,18.30
2007,08,14,09,22,18.30
2007,08,14,09,23,18.30
2007,08,14,09,24,18.30
2007,08,14,09,25,18.30
2007,08,14,09,26,18.30
2007,08,14,09,27,18.40
2007,08,14,09,28,18.30
2007,08,14,09,29,18.30
2007,08,14,09,30,18.30
2007,08,14,09,31,18.30
2007,08,14,09,32,18.30
2007,08,14,09,33,18.30
2007,08,14,09,34,18.30
2007,08,14,09,35,18.30
2007,08,14,09,36,18.30
2007,08,14,09,37,18.30
2007,08,14,09,38,18.30
2007,08,14,09,39,18.40
2007,08,14,09,40,18.40
2007,08,14,09,41,18.40
2007,08,14,09,42,18.40
2007,08,14,09,43,18.50
2007,08,14,09,44,18.50
2007,08,14,09,45,18.60
2007,08,14,09,46,18.60
2007,08,14,09,47,18.60
2007,08,14,09,48,18.60
2007,08,14,09,49,18.70
2007,08,14,09,50,18.70
2007,08,14,09,51,18.80
2007,08,14,09,52,18.90
2007,08,14,09,53,18.90
2007,08,14,09,54,18.90
2007,08,14,09,55,18.90
2007,08,14,09,56,18.90
2007,08,14,09,57,19.00
2007,08,14,09,58,19.00
2007,08,14,09,59,19.10
2007,08,14,10,00,19.20
2007,08,14,10,01,19.20
2007,08,14,10,02,19.30
2007,08,14,10,03,19.40
2007,08,14,10,04,19.40
2007,08,14,10,05,19.50
2007,08,14,10,06,19.50
2007,08,14,10,07,19.40
2007,08,14,10,08,19.40
2007,08,14,10,09,19.40
2007,08,14,10,10,19.40
2007,08,14,10,11,19.50
2007,08,14,10,12,19.60
2007,08,14,10,13,19.60
2007,08,14,10,14,19.60
2007,08,14,10,15,19.70
2007,08,14,10,16,19.80
2007,08,14,10,17,19.80
2007,08,14,10,18,19.80
2007,08,14,10,19,20.00
2007,08,14,10,20,20.00
2007,08,14,10,21,20.00
2007,08,14,10,22,19.90
2007,08,14,10,23,19.90
2007,08,14,10,24,19.80
2007,08,14,10,25,19.80
2007,08,14,10,26,19.70
2007,08,14,10,27,19.80
2007,08,14,10,28,19.80
2007,08,14,10,29,19.80
2007,08,14,10,30,19.90
2007,08,14,10,31,20.00
2007,08,14,10,32,20.00
2007,08,14,10,33,20.10
2007,08,14,10,34,20.10
2007,08,14,10,35,20.00
2007,08,14,10,36,20.00
2007,08,14,10,37,20.00
2007,08,14,10,38,19.90
2007,08,14,10,39,19.90
2007,08,14,10,40,20.00
2007,08,14,10,41,20.10
2007,08,14,10,42,20.10
2007,08,14,10,43,20.10
2007,08,14,10,44,20.10
2007,08,14,10,45,20.00
2007,08,14,10,46,20.00
2007,08,14,10,47,20.00
2007,08,14,10,48,19.90
2007,08,14,10,49,20.00
2007,08,14,10,50,20.10
2007,08,14,10,51,20.20
2007,08,14,10,52,20.20
2007,08,14,10,53,20.20
2007,08,14,10,54,20.20
2007,08,14,10,55,20.20
2007,08,14,10,56,20.20
2007,08,14,10,57,20.20
2007,08,14,10,58,20.20
2007,08,14,10,59,20.20
2007,08,14,11,00,20.10
2007,08,14,11,01,20.10
2007,08,14,11,02,20.10
2007,08,14,11,03,20.20
2007,08,14,11,04,20.30
2007,08,14,11,05,20.30
2007,08,14,11,06,20.40
2007,08,14,11,07,20.40
2007,08,14,11,08,20.40
2007,08,14,11,09,20.40
2007,08,14,11,10,20.40
2007,08,14,11,11,20.40
2007,08,14,11,12,20.40
2007,08,14,11,13,20.50
2007,08,14,11,14,20.50
2007,08,14,11,15,20.40
2007,08,14,11,16,20.40
2007,08,14,11,17,20.40
2007,08,14,11,18,20.40
2007,08,14,11,19,20.10
2007,08,14,11,20,20.10
2007,08,14,11,21,20.10
2007,08,14,11,22,20.10
2007,08,14,11,23,20.10
2007,08,14,11,24,20.10
2007,08,14,11,25,20.20
2007,08,14,11,26,20.20
2007,08,14,11,27,20.30
2007,08,14,11,28,20.30
2007,08,14,11,29,20.30
2007,08,14,11,30,20.40
2007,08,14,11,31,20.40
2007,08,14,11,32,20.40
2007,08,14,11,33,20.40
2007,08,14,11,34,20.40
2007,08,14,11,35,20.40
2007,08,14,11,36,20.70
2007,08,14,11,37,20.70
2007,08,14,11,38,20.60
2007,08,14,11,39,20.50
2007,08,14,11,40,20.40
2007,08,14,11,41,20.40
2007,08,14,11,42,20.40
2007,08,14,11,43,20.40
2007,08,14,11,44,20.40
2007,08,14,11,45,20.40
2007,08,14,11,46,20.30
2007,08,14,11,47,20.30
2007,08,14,11,48,20.40
2007,08,14,11,49,20.40
2007,08,14,11,50,20.40
2007,08,14,11,51,20.50
2007,08,14,11,52,20.50
2007,08,14,11,53,20.50
2007,08,14,11,54,20.60
2007,08,14,11,55,20.60
2007,08,14,11,56,20.60
2007,08,14,11,57,20.60
2007,08,14,11,58,20.60
2007,08,14,11,59,20.60
2007,08,14,12,00,20.60
2007,08,14,12,01,20.70
2007,08,14,12,02,20.70
2007,08,14,12,03,20.70
2007,08,14,12,04,20.80
2007,08,14,12,05,20.80
2007,08,14,12,06,20.80
2007,08,14,12,07,20.90
2007,08,14,12,08,20.90
2007,08,14,12,09,20.90
2007,08,14,12,10,20.90
2007,08,14,12,11,21.00
2007,08,14,12,12,21.00
2007,08,14,12,13,21.10
2007,08,14,12,14,21.20
2007,08,14,12,15,21.20
2007,08,14,12,16,21.20
2007,08,14,12,17,21.10
2007,08,14,12,18,21.10
2007,08,14,12,19,21.10
2007,08,14,12,20,21.10
2007,08,14,12,21,21.10
2007,08,14,12,22,21.10
2007,08,14,12,23,21.10
2007,08,14,12,24,21.20
2007,08,14,12,25,21.10
2007,08,14,12,26,21.10
2007,08,14,12,27,21.10
2007,08,14,12,28,21.10
2007,08,14,12,29,21.10
2007,08,14,12,30,21.00
2007,08,14,12,31,21.00
2007,08,14,12,32,20.90
2007,08,14,12,33,20.90
2007,08,14,12,34,21.00
2007,08,14,12,35,21.10
2007,08,14,12,36,21.10
2007,08,14,12,37,21.10
2007,08,14,12,38,21.10
2007,08,14,12,39,21.00
2007,08,14,12,40,20.90
2007,08,14,12,41,20.90
2007,08,14,12,42,21.00
2007,08,14,12,43,21.00
2007,08,14,12,44,21.00
2007,08,14,12,45,20.90
2007,08,14,12,46,20.80
2007,08,14,12,47,20.80
2007,08,14,12,48,20.80
2007,08,14,12,49,20.80
2007,08,14,12,50,20.90
2007,08,14,12,51,20.90
2007,08,14,12,52,21.00
2007,08,14,12,53,21.10
2007,08,14,12,54,21.20
2007,08,14,12,55,21.30
2007,08,14,12,56,21.30
2007,08,14,12,57,21.40
2007,08,14,12,58,21.40
2007,08,14,12,59,21.30
2007,08,14,13,00,21.30
2007,08,14,13,01,21.30
2007,08,14,13,02,21.20
2007,08,14,13,03,21.30
2007,08,14,13,04,21.30
2007,08,14,13,05,21.30
2007,08,14,13,06,21.30
2007,08,14,13,07,21.40
2007,08,14,13,08,21.40
2007,08,14,13,09,21.40
2007,08,14,13,10,21.40
2007,08,14,13,11,21.40
2007,08,14,13,12,21.30
2007,08,14,13,13,21.30
2007,08,14,13,14,21.30
2007,08,14,13,15,21.40
2007,08,14,13,16,21.50
2007,08,14,13,17,21.60
2007,08,14,13,18,21.70
2007,08,14,13,19,21.80
2007,08,14,13,20,21.80
2007,08,14,13,21,21.80
2007,08,14,13,22,21.80
2007,08,14,13,23,21.70
2007,08,14,13,24,21.60
2007,08,14,13,25,21.70
2007,08,14,13,26,21.80
2007,08,14,13,27,21.80
2007,08,14,13,28,21.80
2007,08,14,13,29,21.80
2007,08,14,13,30,21.80
2007,08,14,13,31,21.90
2007,08,14,13,32,21.90
2007,08,14,13,33,21.90
2007,08,14,13,34,21.90
2007,08,14,13,35,21.80
2007,08,14,13,36,21.80
2007,08,14,13,37,21.80
2007,08,14,13,38,21.80
2007,08,14,13,39,21.80
2007,08,14,13,40,21.80
2007,08,14,13,41,21.80
2007,08,14,13,42,21.80
2007,08,14,13,43,21.90
2007,08,14,13,44,22.00
2007,08,14,13,45,22.00
2007,08,14,13,46,22.10
2007,08,14,13,47,22.10
2007,08,14,13,48,22.20
2007,08,14,13,49,22.20
2007,08,14,13,50,22.20
2007,08,14,13,51,22.20
2007,08,14,13,52,22.20
2007,08,14,13,53,22.20
2007,08,14,13,54,22.30
2007,08,14,13,55,22.30
2007,08,14,13,56,22.40
2007,08,14,13,57,22.40
2007,08,14,13,58,22.40
2007,08,14,13,59,22.30
2007,08,14,14,00,22.30
2007,08,14,14,01,22.20
2007,08,14,14,02,22.20
2007,08,14,14,03,22.20
2007,08,14,14,04,22.30
2007,08,14,14,05,22.30
2007,08,14,14,06,22.30
2007,08,14,14,07,22.20
2007,08,14,14,08,22.20
2007,08,14,14,09,22.10
2007,08,14,14,10,22.10
2007,08,14,14,11,22.10
2007,08,14,14,12,22.20
2007,08,14,14,13,22.30
2007,08,14,14,14,22.30
2007,08,14,14,15,22.30
2007,08,14,14,16,22.30
2007,08,14,14,17,22.30
2007,08,14,14,18,22.30
2007,08,14,14,19,22.40
2007,08,14,14,20,22.40
2007,08,14,14,21,22.40
2007,08,14,14,22,22.50
2007,08,14,14,23,22.50
2007,08,14,14,24,22.50
2007,08,14,14,25,22.40
2007,08,14,14,26,22.40
2007,08,14,14,27,22.40
2007,08,14,14,28,22.40
2007,08,14,14,29,22.40
2007,08,14,14,30,22.50
2007,08,14,14,31,22.50
2007,08,14,14,32,22.50
2007,08,14,14,33,22.50
2007,08,14,14,34,22.60
2007,08,14,14,35,22.60
2007,08,14,14,36,22.60
2007,08,14,14,37,22.60
2007,08,14,14,38,22.50
2007,08,14,14,39,22.50
2007,08,14,14,40,22.50
2007,08,14,14,41,22.60
2007,08,14,14,42,22.60
2007,08,14,14,43,22.70
2007,08,14,14,44,22.70
2007,08,14,14,45,22.80
2007,08,14,14,46,22.80
2007,08,14,14,47,22.80
2007,08,14,14,48,22.80
2007,08,14,14,49,22.80
2007,08,14,14,50,22.70
2007,08,14,14,51,22.70
2007,08,14,14,52,22.80
2007,08,14,14,53,22.80
2007,08,14,14,54,22.80
2007,08,14,14,55,22.90
2007,08,14,14,56,23.00
2007,08,14,14,57,23.00
2007,08,14,14,58,23.10
2007,08,14,14,59,23.00
2007,08,14,15,00,22.90
2007,08,14,15,01,22.90
2007,08,14,15,02,22.90
2007,08,14,15,03,22.90
2007,08,14,15,04,22.90
2007,08,14,15,05,22.80
2007,08,14,15,06,22.80
2007,08,14,15,07,22.80
2007,08,14,15,08,22.80
2007,08,14,15,09,22.70
2007,08,14,15,10,22.70
2007,08,14,15,11,22.70
2007,08,14,15,12,22.60
2007,08,14,15,13,22.60
2007,08,14,15,14,22.60
2007,08,14,15,15,22.60
2007,08,14,15,16,22.60
2007,08,14,15,17,22.60
2007,08,14,15,18,22.60
2007,08,14,15,19,22.60
2007,08,14,15,20,22.60
2007,08,14,15,21,22.60
2007,08,14,15,22,22.60
2007,08,14,15,23,22.60
2007,08,14,15,24,22.70
2007,08,14,15,25,22.70
2007,08,14,15,26,22.80
2007,08,14,15,27,22.80
2007,08,14,15,28,22.80
2007,08,14,15,29,22.90
2007,08,14,15,30,22.90
2007,08,14,15,31,22.90
2007,08,14,15,32,22.90
2007,08,14,15,33,22.90
2007,08,14,15,34,22.90
2007,08,14,15,35,22.90
2007,08,14,15,36,22.90
2007,08,14,15,37,23.00
2007,08,14,15,38,23.10
2007,08,14,15,39,23.10
2007,08,14,15,40,23.10
2007,08,14,15,41,23.20
2007,08,14,15,42,23.20
2007,08,14,15,43,23.20
2007,08,14,15,44,23.20
2007,08,14,15,45,23.20
2007,08,14,15,46,23.20
2007,08,14,15,47,23.20
2007,08,14,15,48,23.30
2007,08,14,15,49,23.30
2007,08,14,15,50,23.20
2007,08,14,15,51,23.10
2007,08,14,15,52,23.00
2007,08,14,15,53,23.00
2007,08,14,15,54,23.00
2007,08,14,15,55,23.10
2007,08,14,15,56,23.20
2007,08,14,15,57,23.40
2007,08,14,15,58,23.50
2007,08,14,15,59,23.60
2007,08,14,16,00,23.70
2007,08,14,16,01,23.70
2007,08,14,16,02,23.70
2007,08,14,16,03,23.70
2007,08,14,16,04,23.70
2007,08,14,16,05,23.70
2007,08,14,16,06,23.60
2007,08,14,16,07,23.50
2007,08,14,16,08,23.40
2007,08,14,16,09,23.30
2007,08,14,16,10,23.30
2007,08,14,16,11,23.30
2007,08,14,16,12,23.30
2007,08,14,16,13,23.40
2007,08,14,16,14,23.50
2007,08,14,16,15,23.60
2007,08,14,16,16,23.70
2007,08,14,16,17,23.70
2007,08,14,16,18,23.70
2007,08,14,16,19,23.80
2007,08,14,16,20,23.80
2007,08,14,16,21,23.80
2007,08,14,16,22,23.80
2007,08,14,16,23,23.80
2007,08,14,16,24,23.90
2007,08,14,16,25,23.90
2007,08,14,16,26,23.90
2007,08,14,16,27,23.90
2007,08,14,16,28,23.90
2007,08,14,16,29,23.80
2007,08,14,16,30,23.80
2007,08,14,16,31,23.80
2007,08,14,16,32,23.70
2007,08,14,16,33,23.70
2007,08,14,16,34,23.80
2007,08,14,16,35,23.80
2007,08,14,16,36,23.80
2007,08,14,16,37,23.80
2007,08,14,16,38,23.80
2007,08,14,16,39,23.80
2007,08,14,16,40,23.80
2007,08,14,16,41,23.80
2007,08,14,16,42,23.80
2007,08,14,16,43,24.00
2007,08,14,16,44,24.00
2007,08,14,16,45,23.90
2007,08,14,16,46,23.90
2007,08,14,16,47,24.00
2007,08,14,16,48,24.00
2007,08,14,16,49,24.10
2007,08,14,16,50,24.00
2007,08,14,16,51,24.00
2007,08,14,16,52,23.90
2007,08,14,16,53,23.90
2007,08,14,16,54,23.90
2007,08,14,16,55,23.80
2007,08,14,16,56,23.80
2007,08,14,16,57,23.80
2007,08,14,16,58,23.80
2007,08,14,16,59,23.80
2007,08,14,17,00,23.80
2007,08,14,17,01,23.80
2007,08,14,17,02,23.80
2007,08,14,17,03,23.80
2007,08,14,17,04,23.80
2007,08,14,17,05,23.80
2007,08,14,17,06,23.90
2007,08,14,17,07,23.80
2007,08,14,17,08,23.80
2007,08,14,17,09,23.90
2007,08,14,17,10,23.90
2007,08,14,17,11,24.00
2007,08,14,17,12,24.10
2007,08,14,17,13,24.30
2007,08,14,17,14,24.40
2007,08,14,17,15,24.50
2007,08,14,17,16,24.50
2007,08,14,17,17,24.60
2007,08,14,17,18,24.50
2007,08,14,17,19,24.50